UTC_DateTime,UTC_Time,PG,PG_mean,unit,site,lat,lon,alt
2012-07-07T00:00:00,00:00:00,96,70,V/m,CAS,-31.798,290.705,2550
2012-07-07T01:00:00,01:00:00,82,63,V/m,CAS,-31.798,290.705,2550
2012-07-07T02:00:00,02:00:00,75,65,V/m,CAS,-31.798,290.705,2550
2012-07-07T03:00:00,03:00:00,71,64,V/m,CAS,-31.798,290.705,2550
2012-07-07T04:00:00,04:00:00,77,62,V/m,CAS,-31.798,290.705,2550
2012-07-07T05:00:00,05:00:00,86,59,V/m,CAS,-31.798,290.705,2550
2012-07-07T06:00:00,06:00:00,92,61,V/m,CAS,-31.798,290.705,2550
2012-07-07T07:00:00,07:00:00,90,64,V/m,CAS,-31.798,290.705,2550
2012-07-07T08:00:00,08:00:00,89,66,V/m,CAS,-31.798,290.705,2550
2012-07-07T09:00:00,09:00:00,81,68,V/m,CAS,-31.798,290.705,2550
2012-07-07T10:00:00,10:00:00,91,68,V/m,CAS,-31.798,290.705,2550
2012-07-07T11:00:00,11:00:00,88,63,V/m,CAS,-31.798,290.705,2550
2012-07-07T12:00:00,12:00:00,88,70,V/m,CAS,-31.798,290.705,2550
2012-07-07T13:00:00,13:00:00,102,78,V/m,CAS,-31.798,290.705,2550
2012-07-07T14:00:00,14:00:00,126,87,V/m,CAS,-31.798,290.705,2550
2012-07-07T15:00:00,15:00:00,129,93,V/m,CAS,-31.798,290.705,2550
2012-07-07T16:00:00,16:00:00,127,97,V/m,CAS,-31.798,290.705,2550
2012-07-07T17:00:00,17:00:00,128,101,V/m,CAS,-31.798,290.705,2550
2012-07-07T18:00:00,18:00:00,122,108,V/m,CAS,-31.798,290.705,2550
2012-07-07T19:00:00,19:00:00,122,111,V/m,CAS,-31.798,290.705,2550
2012-07-07T20:00:00,20:00:00,123,111,V/m,CAS,-31.798,290.705,2550
2012-07-07T21:00:00,21:00:00,115,99,V/m,CAS,-31.798,290.705,2550
2012-07-07T22:00:00,22:00:00,82,84,V/m,CAS,-31.798,290.705,2550
2012-07-07T23:00:00,23:00:00,95,78,V/m,CAS,-31.798,290.705,2550
2012-07-08T00:00:00,00:00:00,80,70,V/m,CAS,-31.798,290.705,2550
2012-07-08T01:00:00,01:00:00,71,63,V/m,CAS,-31.798,290.705,2550
2012-07-08T02:00:00,02:00:00,60,65,V/m,CAS,-31.798,290.705,2550
2012-07-08T03:00:00,03:00:00,64,64,V/m,CAS,-31.798,290.705,2550
2012-07-08T04:00:00,04:00:00,70,62,V/m,CAS,-31.798,290.705,2550
2012-07-08T05:00:00,05:00:00,65,59,V/m,CAS,-31.798,290.705,2550
2012-07-08T06:00:00,06:00:00,70,61,V/m,CAS,-31.798,290.705,2550
2012-07-08T07:00:00,07:00:00,78,64,V/m,CAS,-31.798,290.705,2550
2012-07-08T08:00:00,08:00:00,75,66,V/m,CAS,-31.798,290.705,2550
2012-07-08T09:00:00,09:00:00,72,68,V/m,CAS,-31.798,290.705,2550
2012-07-08T10:00:00,10:00:00,72,68,V/m,CAS,-31.798,290.705,2550
2012-07-08T11:00:00,11:00:00,73,63,V/m,CAS,-31.798,290.705,2550
2012-07-08T12:00:00,12:00:00,84,70,V/m,CAS,-31.798,290.705,2550
2012-07-08T13:00:00,13:00:00,89,78,V/m,CAS,-31.798,290.705,2550
2012-07-08T14:00:00,14:00:00,94,87,V/m,CAS,-31.798,290.705,2550
2012-07-08T15:00:00,15:00:00,99,93,V/m,CAS,-31.798,290.705,2550
2012-07-08T16:00:00,16:00:00,103,97,V/m,CAS,-31.798,290.705,2550
2012-07-08T17:00:00,17:00:00,112,101,V/m,CAS,-31.798,290.705,2550
2012-07-08T18:00:00,18:00:00,117,108,V/m,CAS,-31.798,290.705,2550
2012-07-08T19:00:00,19:00:00,137,111,V/m,CAS,-31.798,290.705,2550
2012-07-08T20:00:00,20:00:00,124,111,V/m,CAS,-31.798,290.705,2550
2012-07-08T21:00:00,21:00:00,113,99,V/m,CAS,-31.798,290.705,2550
2012-07-08T22:00:00,22:00:00,97,84,V/m,CAS,-31.798,290.705,2550
2012-07-08T23:00:00,23:00:00,115,78,V/m,CAS,-31.798,290.705,2550
2012-07-09T00:00:00,00:00:00,89,70,V/m,CAS,-31.798,290.705,2550
2012-07-09T01:00:00,01:00:00,89,63,V/m,CAS,-31.798,290.705,2550
2012-07-09T02:00:00,02:00:00,75,65,V/m,CAS,-31.798,290.705,2550
2012-07-09T03:00:00,03:00:00,77,64,V/m,CAS,-31.798,290.705,2550
2012-07-09T04:00:00,04:00:00,71,62,V/m,CAS,-31.798,290.705,2550
2012-07-09T05:00:00,05:00:00,70,59,V/m,CAS,-31.798,290.705,2550
2012-07-09T06:00:00,06:00:00,72,61,V/m,CAS,-31.798,290.705,2550
2012-07-09T07:00:00,07:00:00,86,64,V/m,CAS,-31.798,290.705,2550
2012-07-09T08:00:00,08:00:00,75,66,V/m,CAS,-31.798,290.705,2550
2012-07-09T09:00:00,09:00:00,73,68,V/m,CAS,-31.798,290.705,2550
2012-07-09T10:00:00,10:00:00,77,68,V/m,CAS,-31.798,290.705,2550
2012-07-09T11:00:00,11:00:00,92,63,V/m,CAS,-31.798,290.705,2550
2012-07-09T12:00:00,12:00:00,98,70,V/m,CAS,-31.798,290.705,2550
2012-07-09T13:00:00,13:00:00,111,78,V/m,CAS,-31.798,290.705,2550
2012-07-09T14:00:00,14:00:00,104,87,V/m,CAS,-31.798,290.705,2550
2012-07-09T15:00:00,15:00:00,117,93,V/m,CAS,-31.798,290.705,2550
2012-07-09T16:00:00,16:00:00,124,97,V/m,CAS,-31.798,290.705,2550
2012-07-09T17:00:00,17:00:00,124,101,V/m,CAS,-31.798,290.705,2550
2012-07-09T18:00:00,18:00:00,133,108,V/m,CAS,-31.798,290.705,2550
2012-07-09T19:00:00,19:00:00,125,111,V/m,CAS,-31.798,290.705,2550
2012-07-09T20:00:00,20:00:00,133,111,V/m,CAS,-31.798,290.705,2550
2012-07-09T21:00:00,21:00:00,122,99,V/m,CAS,-31.798,290.705,2550
2012-07-09T22:00:00,22:00:00,106,84,V/m,CAS,-31.798,290.705,2550
2012-07-09T23:00:00,23:00:00,85,78,V/m,CAS,-31.798,290.705,2550
2012-07-10T00:00:00,00:00:00,76,70,V/m,CAS,-31.798,290.705,2550
2012-07-10T01:00:00,01:00:00,72,63,V/m,CAS,-31.798,290.705,2550
2012-07-10T02:00:00,02:00:00,70,65,V/m,CAS,-31.798,290.705,2550
2012-07-10T03:00:00,03:00:00,68,64,V/m,CAS,-31.798,290.705,2550
2012-07-10T04:00:00,04:00:00,59,62,V/m,CAS,-31.798,290.705,2550
2012-07-10T05:00:00,05:00:00,56,59,V/m,CAS,-31.798,290.705,2550
2012-07-10T06:00:00,06:00:00,60,61,V/m,CAS,-31.798,290.705,2550
2012-07-10T07:00:00,07:00:00,64,64,V/m,CAS,-31.798,290.705,2550
2012-07-10T08:00:00,08:00:00,69,66,V/m,CAS,-31.798,290.705,2550
2012-07-10T09:00:00,09:00:00,69,68,V/m,CAS,-31.798,290.705,2550
2012-07-10T10:00:00,10:00:00,84,68,V/m,CAS,-31.798,290.705,2550
2012-07-10T11:00:00,11:00:00,81,63,V/m,CAS,-31.798,290.705,2550
2012-07-10T12:00:00,12:00:00,73,70,V/m,CAS,-31.798,290.705,2550
2012-07-10T13:00:00,13:00:00,93,78,V/m,CAS,-31.798,290.705,2550
2012-07-10T14:00:00,14:00:00,100,87,V/m,CAS,-31.798,290.705,2550
2012-07-10T15:00:00,15:00:00,104,93,V/m,CAS,-31.798,290.705,2550
2012-07-10T16:00:00,16:00:00,107,97,V/m,CAS,-31.798,290.705,2550
2012-07-10T17:00:00,17:00:00,117,101,V/m,CAS,-31.798,290.705,2550
2012-07-10T18:00:00,18:00:00,120,108,V/m,CAS,-31.798,290.705,2550
2012-07-10T19:00:00,19:00:00,135,111,V/m,CAS,-31.798,290.705,2550
2012-07-10T20:00:00,20:00:00,124,111,V/m,CAS,-31.798,290.705,2550
2012-07-10T21:00:00,21:00:00,109,99,V/m,CAS,-31.798,290.705,2550
2012-07-10T22:00:00,22:00:00,90,84,V/m,CAS,-31.798,290.705,2550
2012-07-10T23:00:00,23:00:00,79,78,V/m,CAS,-31.798,290.705,2550
2012-07-11T00:00:00,00:00:00,71,70,V/m,CAS,-31.798,290.705,2550
2012-07-11T01:00:00,01:00:00,66,63,V/m,CAS,-31.798,290.705,2550
2012-07-11T02:00:00,02:00:00,61,65,V/m,CAS,-31.798,290.705,2550
2012-07-11T03:00:00,03:00:00,59,64,V/m,CAS,-31.798,290.705,2550
2012-07-11T04:00:00,04:00:00,60,62,V/m,CAS,-31.798,290.705,2550
2012-07-11T05:00:00,05:00:00,66,59,V/m,CAS,-31.798,290.705,2550
2012-07-11T06:00:00,06:00:00,70,61,V/m,CAS,-31.798,290.705,2550
2012-07-11T07:00:00,07:00:00,68,64,V/m,CAS,-31.798,290.705,2550
2012-07-11T08:00:00,08:00:00,73,66,V/m,CAS,-31.798,290.705,2550
2012-07-11T09:00:00,09:00:00,74,68,V/m,CAS,-31.798,290.705,2550
2012-07-11T10:00:00,10:00:00,71,68,V/m,CAS,-31.798,290.705,2550
2012-07-11T11:00:00,11:00:00,74,63,V/m,CAS,-31.798,290.705,2550
2012-07-11T12:00:00,12:00:00,112,70,V/m,CAS,-31.798,290.705,2550
2012-07-11T13:00:00,13:00:00,94,78,V/m,CAS,-31.798,290.705,2550
2012-07-11T14:00:00,14:00:00,102,87,V/m,CAS,-31.798,290.705,2550
2012-07-11T15:00:00,15:00:00,106,93,V/m,CAS,-31.798,290.705,2550
2012-07-11T16:00:00,16:00:00,105,97,V/m,CAS,-31.798,290.705,2550
2012-07-11T17:00:00,17:00:00,88,101,V/m,CAS,-31.798,290.705,2550
2012-07-11T18:00:00,18:00:00,77,108,V/m,CAS,-31.798,290.705,2550
2012-07-11T19:00:00,19:00:00,116,111,V/m,CAS,-31.798,290.705,2550
2012-07-11T20:00:00,20:00:00,139,111,V/m,CAS,-31.798,290.705,2550
2012-07-11T21:00:00,21:00:00,139,99,V/m,CAS,-31.798,290.705,2550
2012-07-11T22:00:00,22:00:00,146,84,V/m,CAS,-31.798,290.705,2550
2012-07-11T23:00:00,23:00:00,104,78,V/m,CAS,-31.798,290.705,2550
2012-07-12T00:00:00,00:00:00,88,70,V/m,CAS,-31.798,290.705,2550
2012-07-12T01:00:00,01:00:00,75,63,V/m,CAS,-31.798,290.705,2550
2012-07-12T02:00:00,02:00:00,76,65,V/m,CAS,-31.798,290.705,2550
2012-07-12T03:00:00,03:00:00,64,64,V/m,CAS,-31.798,290.705,2550
2012-07-12T04:00:00,04:00:00,64,62,V/m,CAS,-31.798,290.705,2550
2012-07-12T05:00:00,05:00:00,65,59,V/m,CAS,-31.798,290.705,2550
2012-07-12T06:00:00,06:00:00,74,61,V/m,CAS,-31.798,290.705,2550
2012-07-12T07:00:00,07:00:00,93,64,V/m,CAS,-31.798,290.705,2550
2012-07-12T08:00:00,08:00:00,86,66,V/m,CAS,-31.798,290.705,2550
2012-07-12T09:00:00,09:00:00,80,68,V/m,CAS,-31.798,290.705,2550
2012-07-12T10:00:00,10:00:00,72,68,V/m,CAS,-31.798,290.705,2550
2012-07-12T11:00:00,11:00:00,67,63,V/m,CAS,-31.798,290.705,2550
2012-07-12T12:00:00,12:00:00,78,70,V/m,CAS,-31.798,290.705,2550
2012-07-12T13:00:00,13:00:00,87,78,V/m,CAS,-31.798,290.705,2550
2012-07-12T14:00:00,14:00:00,85,87,V/m,CAS,-31.798,290.705,2550
2012-07-12T15:00:00,15:00:00,87,93,V/m,CAS,-31.798,290.705,2550
2012-07-12T16:00:00,16:00:00,98,97,V/m,CAS,-31.798,290.705,2550
2012-07-12T17:00:00,17:00:00,85,101,V/m,CAS,-31.798,290.705,2550
2012-07-12T18:00:00,18:00:00,92,108,V/m,CAS,-31.798,290.705,2550
2012-07-12T19:00:00,19:00:00,98,111,V/m,CAS,-31.798,290.705,2550
2012-07-12T20:00:00,20:00:00,99,111,V/m,CAS,-31.798,290.705,2550
2012-07-12T21:00:00,21:00:00,101,99,V/m,CAS,-31.798,290.705,2550
2012-07-12T22:00:00,22:00:00,78,84,V/m,CAS,-31.798,290.705,2550
2012-07-12T23:00:00,23:00:00,66,78,V/m,CAS,-31.798,290.705,2550
2012-07-13T00:00:00,00:00:00,57,70,V/m,CAS,-31.798,290.705,2550
2012-07-13T01:00:00,01:00:00,52,63,V/m,CAS,-31.798,290.705,2550
2012-07-13T02:00:00,02:00:00,50,65,V/m,CAS,-31.798,290.705,2550
2012-07-13T03:00:00,03:00:00,49,64,V/m,CAS,-31.798,290.705,2550
2012-07-13T04:00:00,04:00:00,53,62,V/m,CAS,-31.798,290.705,2550
2012-07-13T05:00:00,05:00:00,54,59,V/m,CAS,-31.798,290.705,2550
2012-07-13T06:00:00,06:00:00,60,61,V/m,CAS,-31.798,290.705,2550
2012-07-13T07:00:00,07:00:00,65,64,V/m,CAS,-31.798,290.705,2550
2012-07-13T08:00:00,08:00:00,63,66,V/m,CAS,-31.798,290.705,2550
2012-07-13T09:00:00,09:00:00,66,68,V/m,CAS,-31.798,290.705,2550
2012-07-13T10:00:00,10:00:00,63,68,V/m,CAS,-31.798,290.705,2550
2012-07-13T11:00:00,11:00:00,65,63,V/m,CAS,-31.798,290.705,2550
2012-07-13T12:00:00,12:00:00,70,70,V/m,CAS,-31.798,290.705,2550
2012-07-13T13:00:00,13:00:00,75,78,V/m,CAS,-31.798,290.705,2550
2012-07-13T14:00:00,14:00:00,82,87,V/m,CAS,-31.798,290.705,2550
2012-07-13T15:00:00,15:00:00,85,93,V/m,CAS,-31.798,290.705,2550
2012-07-13T16:00:00,16:00:00,91,97,V/m,CAS,-31.798,290.705,2550
2012-07-13T17:00:00,17:00:00,91,101,V/m,CAS,-31.798,290.705,2550
2012-07-13T18:00:00,18:00:00,104,108,V/m,CAS,-31.798,290.705,2550
2012-07-13T19:00:00,19:00:00,95,111,V/m,CAS,-31.798,290.705,2550
2012-07-13T20:00:00,20:00:00,101,111,V/m,CAS,-31.798,290.705,2550
2012-07-13T21:00:00,21:00:00,82,99,V/m,CAS,-31.798,290.705,2550
2012-07-13T22:00:00,22:00:00,70,84,V/m,CAS,-31.798,290.705,2550
2012-07-13T23:00:00,23:00:00,78,78,V/m,CAS,-31.798,290.705,2550
2012-07-14T00:00:00,00:00:00,57,70,V/m,CAS,-31.798,290.705,2550
2012-07-14T01:00:00,01:00:00,53,63,V/m,CAS,-31.798,290.705,2550
2012-07-14T02:00:00,02:00:00,55,65,V/m,CAS,-31.798,290.705,2550
2012-07-14T03:00:00,03:00:00,59,64,V/m,CAS,-31.798,290.705,2550
2012-07-14T04:00:00,04:00:00,63,62,V/m,CAS,-31.798,290.705,2550
2012-07-14T05:00:00,05:00:00,57,59,V/m,CAS,-31.798,290.705,2550
2012-07-14T06:00:00,06:00:00,78,61,V/m,CAS,-31.798,290.705,2550
2012-07-14T07:00:00,07:00:00,83,64,V/m,CAS,-31.798,290.705,2550
2012-07-14T08:00:00,08:00:00,57,66,V/m,CAS,-31.798,290.705,2550
2012-07-14T09:00:00,09:00:00,56,68,V/m,CAS,-31.798,290.705,2550
2012-07-14T10:00:00,10:00:00,60,68,V/m,CAS,-31.798,290.705,2550
2012-07-14T11:00:00,11:00:00,61,63,V/m,CAS,-31.798,290.705,2550
2012-07-14T12:00:00,12:00:00,72,70,V/m,CAS,-31.798,290.705,2550
2012-07-14T13:00:00,13:00:00,95,78,V/m,CAS,-31.798,290.705,2550
2012-07-14T14:00:00,14:00:00,111,87,V/m,CAS,-31.798,290.705,2550
2012-07-14T15:00:00,15:00:00,116,93,V/m,CAS,-31.798,290.705,2550
2012-07-14T16:00:00,16:00:00,127,97,V/m,CAS,-31.798,290.705,2550
2012-07-14T17:00:00,17:00:00,123,101,V/m,CAS,-31.798,290.705,2550
2012-07-14T18:00:00,18:00:00,130,108,V/m,CAS,-31.798,290.705,2550
2012-07-14T19:00:00,19:00:00,146,111,V/m,CAS,-31.798,290.705,2550
2012-07-14T20:00:00,20:00:00,133,111,V/m,CAS,-31.798,290.705,2550
2012-07-14T21:00:00,21:00:00,128,99,V/m,CAS,-31.798,290.705,2550
2012-07-14T22:00:00,22:00:00,121,84,V/m,CAS,-31.798,290.705,2550
2012-07-14T23:00:00,23:00:00,93,78,V/m,CAS,-31.798,290.705,2550
2012-07-15T00:00:00,00:00:00,84,70,V/m,CAS,-31.798,290.705,2550
2012-07-15T01:00:00,01:00:00,73,63,V/m,CAS,-31.798,290.705,2550
2012-07-15T02:00:00,02:00:00,65,65,V/m,CAS,-31.798,290.705,2550
2012-07-15T03:00:00,03:00:00,68,64,V/m,CAS,-31.798,290.705,2550
2012-07-15T04:00:00,04:00:00,83,62,V/m,CAS,-31.798,290.705,2550
2012-07-15T05:00:00,05:00:00,83,59,V/m,CAS,-31.798,290.705,2550
2012-07-15T06:00:00,06:00:00,82,61,V/m,CAS,-31.798,290.705,2550
2012-07-15T07:00:00,07:00:00,81,64,V/m,CAS,-31.798,290.705,2550
2012-07-15T08:00:00,08:00:00,84,66,V/m,CAS,-31.798,290.705,2550
2012-07-15T09:00:00,09:00:00,79,68,V/m,CAS,-31.798,290.705,2550
2012-07-15T10:00:00,10:00:00,86,68,V/m,CAS,-31.798,290.705,2550
2012-07-15T11:00:00,11:00:00,81,63,V/m,CAS,-31.798,290.705,2550
2012-07-15T12:00:00,12:00:00,85,70,V/m,CAS,-31.798,290.705,2550
2012-07-15T13:00:00,13:00:00,102,78,V/m,CAS,-31.798,290.705,2550
2012-07-15T14:00:00,14:00:00,121,87,V/m,CAS,-31.798,290.705,2550
2012-07-15T15:00:00,15:00:00,113,93,V/m,CAS,-31.798,290.705,2550
2012-07-15T16:00:00,16:00:00,143,97,V/m,CAS,-31.798,290.705,2550
2012-07-15T17:00:00,17:00:00,151,101,V/m,CAS,-31.798,290.705,2550
2012-07-15T18:00:00,18:00:00,161,108,V/m,CAS,-31.798,290.705,2550
2012-07-15T19:00:00,19:00:00,162,111,V/m,CAS,-31.798,290.705,2550
2012-07-15T20:00:00,20:00:00,159,111,V/m,CAS,-31.798,290.705,2550
2012-07-15T21:00:00,21:00:00,151,99,V/m,CAS,-31.798,290.705,2550
2012-07-15T22:00:00,22:00:00,112,84,V/m,CAS,-31.798,290.705,2550
2012-07-15T23:00:00,23:00:00,83,78,V/m,CAS,-31.798,290.705,2550
2012-07-16T00:00:00,00:00:00,75,70,V/m,CAS,-31.798,290.705,2550
2012-07-16T01:00:00,01:00:00,70,63,V/m,CAS,-31.798,290.705,2550
2012-07-16T02:00:00,02:00:00,68,65,V/m,CAS,-31.798,290.705,2550
2012-07-16T03:00:00,03:00:00,72,64,V/m,CAS,-31.798,290.705,2550
2012-07-16T04:00:00,04:00:00,70,62,V/m,CAS,-31.798,290.705,2550
2012-07-16T05:00:00,05:00:00,65,59,V/m,CAS,-31.798,290.705,2550
2012-07-16T06:00:00,06:00:00,69,61,V/m,CAS,-31.798,290.705,2550
2012-07-16T07:00:00,07:00:00,69,64,V/m,CAS,-31.798,290.705,2550
2012-07-16T08:00:00,08:00:00,70,66,V/m,CAS,-31.798,290.705,2550
2012-07-16T09:00:00,09:00:00,67,68,V/m,CAS,-31.798,290.705,2550
2012-07-16T10:00:00,10:00:00,67,68,V/m,CAS,-31.798,290.705,2550
2012-07-16T11:00:00,11:00:00,70,63,V/m,CAS,-31.798,290.705,2550
2012-07-16T12:00:00,12:00:00,77,70,V/m,CAS,-31.798,290.705,2550
2012-07-16T13:00:00,13:00:00,93,78,V/m,CAS,-31.798,290.705,2550
2012-07-16T14:00:00,14:00:00,94,87,V/m,CAS,-31.798,290.705,2550
2012-07-16T15:00:00,15:00:00,95,93,V/m,CAS,-31.798,290.705,2550
2012-07-16T16:00:00,16:00:00,91,97,V/m,CAS,-31.798,290.705,2550
2012-07-16T17:00:00,17:00:00,102,101,V/m,CAS,-31.798,290.705,2550
2012-07-16T18:00:00,18:00:00,110,108,V/m,CAS,-31.798,290.705,2550
2012-07-16T19:00:00,19:00:00,112,111,V/m,CAS,-31.798,290.705,2550
2012-07-16T20:00:00,20:00:00,116,111,V/m,CAS,-31.798,290.705,2550
2012-07-16T21:00:00,21:00:00,100,99,V/m,CAS,-31.798,290.705,2550
2012-07-16T22:00:00,22:00:00,80,84,V/m,CAS,-31.798,290.705,2550
2012-07-16T23:00:00,23:00:00,71,78,V/m,CAS,-31.798,290.705,2550
2012-07-17T00:00:00,00:00:00,66,70,V/m,CAS,-31.798,290.705,2550
2012-07-17T01:00:00,01:00:00,60,63,V/m,CAS,-31.798,290.705,2550
2012-07-17T02:00:00,02:00:00,56,65,V/m,CAS,-31.798,290.705,2550
2012-07-17T03:00:00,03:00:00,51,64,V/m,CAS,-31.798,290.705,2550
2012-07-17T04:00:00,04:00:00,50,62,V/m,CAS,-31.798,290.705,2550
2012-07-17T05:00:00,05:00:00,50,59,V/m,CAS,-31.798,290.705,2550
2012-07-17T06:00:00,06:00:00,52,61,V/m,CAS,-31.798,290.705,2550
2012-07-17T07:00:00,07:00:00,56,64,V/m,CAS,-31.798,290.705,2550
2012-07-17T08:00:00,08:00:00,56,66,V/m,CAS,-31.798,290.705,2550
2012-07-17T09:00:00,09:00:00,59,68,V/m,CAS,-31.798,290.705,2550
2012-07-17T10:00:00,10:00:00,65,68,V/m,CAS,-31.798,290.705,2550
2012-07-17T11:00:00,11:00:00,66,63,V/m,CAS,-31.798,290.705,2550
2012-07-17T12:00:00,12:00:00,73,70,V/m,CAS,-31.798,290.705,2550
2012-07-17T13:00:00,13:00:00,78,78,V/m,CAS,-31.798,290.705,2550
2012-07-17T14:00:00,14:00:00,73,87,V/m,CAS,-31.798,290.705,2550
2012-07-17T15:00:00,15:00:00,82,93,V/m,CAS,-31.798,290.705,2550
2012-07-17T16:00:00,16:00:00,97,97,V/m,CAS,-31.798,290.705,2550
2012-07-17T17:00:00,17:00:00,99,101,V/m,CAS,-31.798,290.705,2550
2012-07-17T18:00:00,18:00:00,106,108,V/m,CAS,-31.798,290.705,2550
2012-07-17T19:00:00,19:00:00,104,111,V/m,CAS,-31.798,290.705,2550
2012-07-17T20:00:00,20:00:00,107,111,V/m,CAS,-31.798,290.705,2550
2012-07-17T21:00:00,21:00:00,105,99,V/m,CAS,-31.798,290.705,2550
2012-07-17T22:00:00,22:00:00,92,84,V/m,CAS,-31.798,290.705,2550
2012-07-17T23:00:00,23:00:00,74,78,V/m,CAS,-31.798,290.705,2550
2012-07-18T00:00:00,00:00:00,54,70,V/m,CAS,-31.798,290.705,2550
2012-07-18T01:00:00,01:00:00,49,63,V/m,CAS,-31.798,290.705,2550
2012-07-18T02:00:00,02:00:00,45,65,V/m,CAS,-31.798,290.705,2550
2012-07-18T03:00:00,03:00:00,44,64,V/m,CAS,-31.798,290.705,2550
2012-07-18T04:00:00,04:00:00,42,62,V/m,CAS,-31.798,290.705,2550
2012-07-18T05:00:00,05:00:00,44,59,V/m,CAS,-31.798,290.705,2550
2012-07-18T06:00:00,06:00:00,46,61,V/m,CAS,-31.798,290.705,2550
2012-07-18T07:00:00,07:00:00,47,64,V/m,CAS,-31.798,290.705,2550
2012-07-18T08:00:00,08:00:00,46,66,V/m,CAS,-31.798,290.705,2550
2012-07-18T09:00:00,09:00:00,52,68,V/m,CAS,-31.798,290.705,2550
2012-07-18T10:00:00,10:00:00,57,68,V/m,CAS,-31.798,290.705,2550
2012-07-18T11:00:00,11:00:00,49,63,V/m,CAS,-31.798,290.705,2550
2012-07-18T12:00:00,12:00:00,55,70,V/m,CAS,-31.798,290.705,2550
2012-07-18T13:00:00,13:00:00,63,78,V/m,CAS,-31.798,290.705,2550
2012-07-18T14:00:00,14:00:00,65,87,V/m,CAS,-31.798,290.705,2550
2012-07-18T15:00:00,15:00:00,72,93,V/m,CAS,-31.798,290.705,2550
2012-07-18T16:00:00,16:00:00,63,97,V/m,CAS,-31.798,290.705,2550
2012-07-18T17:00:00,17:00:00,78,101,V/m,CAS,-31.798,290.705,2550
2012-07-18T18:00:00,18:00:00,92,108,V/m,CAS,-31.798,290.705,2550
2012-07-18T19:00:00,19:00:00,96,111,V/m,CAS,-31.798,290.705,2550
2012-07-18T20:00:00,20:00:00,98,111,V/m,CAS,-31.798,290.705,2550
2012-07-18T21:00:00,21:00:00,85,99,V/m,CAS,-31.798,290.705,2550
2012-07-18T22:00:00,22:00:00,65,84,V/m,CAS,-31.798,290.705,2550
2012-07-18T23:00:00,23:00:00,54,78,V/m,CAS,-31.798,290.705,2550
2012-07-19T00:00:00,00:00:00,52,70,V/m,CAS,-31.798,290.705,2550
2012-07-19T01:00:00,01:00:00,52,63,V/m,CAS,-31.798,290.705,2550
2012-07-19T02:00:00,02:00:00,54,65,V/m,CAS,-31.798,290.705,2550
2012-07-19T03:00:00,03:00:00,46,64,V/m,CAS,-31.798,290.705,2550
2012-07-19T04:00:00,04:00:00,53,62,V/m,CAS,-31.798,290.705,2550
2012-07-19T05:00:00,05:00:00,57,59,V/m,CAS,-31.798,290.705,2550
2012-07-19T06:00:00,06:00:00,61,61,V/m,CAS,-31.798,290.705,2550
2012-07-19T07:00:00,07:00:00,55,64,V/m,CAS,-31.798,290.705,2550
2012-07-19T08:00:00,08:00:00,58,66,V/m,CAS,-31.798,290.705,2550
2012-07-19T09:00:00,09:00:00,58,68,V/m,CAS,-31.798,290.705,2550
2012-07-19T10:00:00,10:00:00,54,68,V/m,CAS,-31.798,290.705,2550
2012-07-19T11:00:00,11:00:00,54,63,V/m,CAS,-31.798,290.705,2550
2012-07-19T12:00:00,12:00:00,58,70,V/m,CAS,-31.798,290.705,2550
2012-07-19T13:00:00,13:00:00,67,78,V/m,CAS,-31.798,290.705,2550
2012-07-19T14:00:00,14:00:00,84,87,V/m,CAS,-31.798,290.705,2550
2012-07-19T15:00:00,15:00:00,84,93,V/m,CAS,-31.798,290.705,2550
2012-07-19T16:00:00,16:00:00,94,97,V/m,CAS,-31.798,290.705,2550
2012-07-19T17:00:00,17:00:00,103,101,V/m,CAS,-31.798,290.705,2550
2012-07-19T18:00:00,18:00:00,108,108,V/m,CAS,-31.798,290.705,2550
2012-07-19T19:00:00,19:00:00,106,111,V/m,CAS,-31.798,290.705,2550
2012-07-19T20:00:00,20:00:00,98,111,V/m,CAS,-31.798,290.705,2550
2012-07-19T21:00:00,21:00:00,84,99,V/m,CAS,-31.798,290.705,2550
2012-07-19T22:00:00,22:00:00,80,84,V/m,CAS,-31.798,290.705,2550
2012-07-19T23:00:00,23:00:00,75,78,V/m,CAS,-31.798,290.705,2550
2012-07-20T00:00:00,00:00:00,58,70,V/m,CAS,-31.798,290.705,2550
2012-07-20T01:00:00,01:00:00,56,63,V/m,CAS,-31.798,290.705,2550
2012-07-20T02:00:00,02:00:00,67,65,V/m,CAS,-31.798,290.705,2550
2012-07-20T03:00:00,03:00:00,73,64,V/m,CAS,-31.798,290.705,2550
2012-07-20T04:00:00,04:00:00,64,62,V/m,CAS,-31.798,290.705,2550
2012-07-20T05:00:00,05:00:00,65,59,V/m,CAS,-31.798,290.705,2550
2012-07-20T06:00:00,06:00:00,59,61,V/m,CAS,-31.798,290.705,2550
2012-07-20T07:00:00,07:00:00,59,64,V/m,CAS,-31.798,290.705,2550
2012-07-20T08:00:00,08:00:00,61,66,V/m,CAS,-31.798,290.705,2550
2012-07-20T09:00:00,09:00:00,74,68,V/m,CAS,-31.798,290.705,2550
2012-07-20T10:00:00,10:00:00,58,68,V/m,CAS,-31.798,290.705,2550
2012-07-20T11:00:00,11:00:00,53,63,V/m,CAS,-31.798,290.705,2550
2012-07-20T12:00:00,12:00:00,52,70,V/m,CAS,-31.798,290.705,2550
2012-07-20T13:00:00,13:00:00,58,78,V/m,CAS,-31.798,290.705,2550
2012-07-20T14:00:00,14:00:00,68,87,V/m,CAS,-31.798,290.705,2550
2012-07-20T15:00:00,15:00:00,74,93,V/m,CAS,-31.798,290.705,2550
2012-07-20T16:00:00,16:00:00,77,97,V/m,CAS,-31.798,290.705,2550
2012-07-20T17:00:00,17:00:00,80,101,V/m,CAS,-31.798,290.705,2550
2012-07-20T18:00:00,18:00:00,94,108,V/m,CAS,-31.798,290.705,2550
2012-07-20T19:00:00,19:00:00,55,111,V/m,CAS,-31.798,290.705,2550
2012-07-20T20:00:00,20:00:00,85,111,V/m,CAS,-31.798,290.705,2550
2012-07-20T21:00:00,21:00:00,91,99,V/m,CAS,-31.798,290.705,2550
2012-07-20T22:00:00,22:00:00,89,84,V/m,CAS,-31.798,290.705,2550
2012-07-20T23:00:00,23:00:00,84,78,V/m,CAS,-31.798,290.705,2550
2012-07-21T00:00:00,00:00:00,87,70,V/m,CAS,-31.798,290.705,2550
2012-07-21T01:00:00,01:00:00,74,63,V/m,CAS,-31.798,290.705,2550
2012-07-21T02:00:00,02:00:00,79,65,V/m,CAS,-31.798,290.705,2550
2012-07-21T03:00:00,03:00:00,92,64,V/m,CAS,-31.798,290.705,2550
2012-07-21T04:00:00,04:00:00,80,62,V/m,CAS,-31.798,290.705,2550
2012-07-21T05:00:00,05:00:00,65,59,V/m,CAS,-31.798,290.705,2550
2012-07-21T06:00:00,06:00:00,61,61,V/m,CAS,-31.798,290.705,2550
2012-07-21T07:00:00,07:00:00,62,64,V/m,CAS,-31.798,290.705,2550
2012-07-21T08:00:00,08:00:00,60,66,V/m,CAS,-31.798,290.705,2550
2012-07-21T09:00:00,09:00:00,55,68,V/m,CAS,-31.798,290.705,2550
2012-07-21T10:00:00,10:00:00,57,68,V/m,CAS,-31.798,290.705,2550
2012-07-21T11:00:00,11:00:00,58,63,V/m,CAS,-31.798,290.705,2550
2012-07-21T12:00:00,12:00:00,66,70,V/m,CAS,-31.798,290.705,2550
2012-07-21T13:00:00,13:00:00,83,78,V/m,CAS,-31.798,290.705,2550
2012-07-21T14:00:00,14:00:00,86,87,V/m,CAS,-31.798,290.705,2550
2012-07-21T15:00:00,15:00:00,91,93,V/m,CAS,-31.798,290.705,2550
2012-07-21T16:00:00,16:00:00,82,97,V/m,CAS,-31.798,290.705,2550
2012-07-21T17:00:00,17:00:00,68,101,V/m,CAS,-31.798,290.705,2550
2012-07-21T18:00:00,18:00:00,66,108,V/m,CAS,-31.798,290.705,2550
2012-07-21T19:00:00,19:00:00,61,111,V/m,CAS,-31.798,290.705,2550
2012-07-21T20:00:00,20:00:00,91,111,V/m,CAS,-31.798,290.705,2550
2012-07-21T21:00:00,21:00:00,107,99,V/m,CAS,-31.798,290.705,2550
2012-07-21T22:00:00,22:00:00,102,84,V/m,CAS,-31.798,290.705,2550
2012-07-21T23:00:00,23:00:00,101,78,V/m,CAS,-31.798,290.705,2550
